TimeSAST,TemperatureF,Dew PointF,Humidity,Sea Level PressureIn,VisibilityMPH,Wind Direction,Wind SpeedMPH,Gust SpeedMPH,PrecipitationIn,Events,Conditions,WindDirDegrees,DateUTC
12:00 AM,73.4,62.6,69,30.01,-9999.0,NE,5.8,-,N/A,,Unknown,40,2014-03-14 22:00:00
1:00 AM,71.6,62.6,73,30.01,6.2,NNE,4.6,-,N/A,,Partly Cloudy,20,2014-03-14 23:00:00
2:00 AM,73,62,61,,25,North,9.2,,,,Scattered Clouds,10,2014-03-15 00:00:00
2:00 AM,71.6,60.8,69,30.04,6.2,North,8.1,-,N/A,,Partly Cloudy,10,2014-03-15 00:00:00
3:00 AM,71.6,62.6,73,30.01,-9999.0,North,11.5,-,N/A,,Unknown,360,2014-03-15 01:00:00
4:00 AM,71.6,62.6,73,29.98,-9999.0,North,9.2,-,N/A,,Unknown,360,2014-03-15 02:00:00
5:00 AM,73,64,66,,,North,11.5,,,,,0,2014-03-15 03:00:00
5:00 AM,71.6,62.6,73,30.01,-9999.0,North,11.5,-,N/A,,Unknown,360,2014-03-15 03:00:00
6:00 AM,69.8,62.6,78,30.01,-9999.0,North,13.8,-,N/A,,Unknown,360,2014-03-15 04:00:00
7:00 AM,71.6,62.6,73,30.04,6.2,North,12.7,-,N/A,,Partly Cloudy,10,2014-03-15 05:00:00
8:00 AM,74,62,59,,25,North,13.8,,,,Scattered Clouds,0,2014-03-15 06:00:00
8:00 AM,73.4,60.8,65,30.04,6.2,North,13.8,-,N/A,,Partly Cloudy,360,2014-03-15 06:00:00
8:35 AM,77.0,62.6,61,30.04,6.2,North,18.4,-,N/A,,Partly Cloudy,360,2014-03-15 06:35:00
9:00 AM,78.8,62.6,57,30.04,6.2,North,17.3,-,N/A,,Partly Cloudy,350,2014-03-15 07:00:00
10:00 AM,80.6,62.6,54,30.06,6.2,North,16.1,-,N/A,,Partly Cloudy,350,2014-03-15 08:00:00
10:39 AM,84.2,62.6,48,30.04,6.2,NNW,17.3,-,N/A,,Partly Cloudy,340,2014-03-15 08:39:00
11:00 AM,84,63,39,,16,NNW,16.1,,,,Haze,340,2014-03-15 09:00:00
11:00 AM,84.2,62.6,48,30.06,6.2,NNW,16.1,-,N/A,,Partly Cloudy,340,2014-03-15 09:00:00
11:33 AM,87.8,62.6,43,30.04,6.2,NNW,13.8,-,N/A,,Partly Cloudy,330,2014-03-15 09:33:00
12:00 PM,87.8,62.6,43,30.04,6.2,NNW,13.8,-,N/A,,Partly Cloudy,340,2014-03-15 10:00:00
1:00 PM,87.8,62.6,43,30.01,6.2,North,13.8,-,N/A,,Partly Cloudy,360,2014-03-15 11:00:00
2:00 PM,92,61,25,,25,NNW,12.7,,,,Partly Cloudy,340,2014-03-15 12:00:00
2:00 PM,91.4,59.0,34,30.01,6.2,NNW,12.7,-,N/A,,Scattered Clouds,340,2014-03-15 12:00:00
3:00 PM,93.2,59.0,32,29.95,6.2,NNW,13.8,-,N/A,,Scattered Clouds,330,2014-03-15 13:00:00
4:00 PM,93.2,57.2,30,29.92,6.2,NNW,16.1,-,N/A,,Partly Cloudy,330,2014-03-15 14:00:00
5:00 PM,92,57,22,,25,NNW,15.0,,,,Scattered Clouds,330,2014-03-15 15:00:00
5:00 PM,91.4,57.2,31,29.89,6.2,NNW,13.8,-,N/A,,Partly Cloudy,330,2014-03-15 15:00:00
6:00 PM,87.8,57.2,35,29.89,6.2,North,11.5,-,N/A,,Partly Cloudy,350,2014-03-15 16:00:00
6:10 PM,87.8,57.2,35,29.89,6.2,North,12.7,-,N/A,Thunderstorm,Thunderstorm,350,2014-03-15 16:10:00
6:31 PM,78.8,57.2,47,29.95,3.1,West,11.5,24.2,N/A,,Sandstorm,270,2014-03-15 16:31:00
7:00 PM,69.8,60.8,73,29.95,5.0,SSW,26.5,42.6,N/A,Rain-Thunderstorm,Thunderstorms and Rain,200,2014-03-15 17:00:00
8:00 PM,70,61,65,,25,NNW,21.9,,,Thunderstorm,Light Thunderstorm,340,2014-03-15 18:00:00
8:00 PM,68.0,59.0,73,29.98,6.2,NNW,21.9,-,N/A,,Scattered Clouds,340,2014-03-15 18:00:00
9:00 PM,71.6,62.6,73,29.98,-9999.0,North,16.1,-,N/A,,Unknown,360,2014-03-15 19:00:00
10:00 PM,73.4,57.2,57,29.98,-9999.0,NNE,11.5,-,N/A,,Unknown,30,2014-03-15 20:00:00
11:00 PM,72,60,57,,,North,8.1,,,,,10,2014-03-15 21:00:00
11:00 PM,71.6,59.0,64,29.98,-9999.0,North,8.1,-,N/A,,Unknown,10,2014-03-15 21:00:00